IRIDIUM 55 [B]

Last updated on Wed Mar 13 2019 03:12:48 GMT+0000 (Coordinated Universal Time)

1 25272U 98019A 19071.38233884 .00000127 00000-0 35038-4 0 9995 2 25272 86.4250 22.3310 0002532 89.2787 270.8702 14.38610378 97068

Satellite not in orbit

IRIDIUM 55 [B]